Location: Antist
(43.1184°N, 0.1270°E)
Time: 05:44:37
(UTC+00:00)

NOSS 2-1 (D) - Pass Details

Date: 19 January 2020
Orbit: 452 x 1751 km, 63.3° (Epoch: 19 February)

Event Time Altitude Azimuth Distance (km) Brightness Sun altitude
Rises 19:05:01 0° 324° (NW) 3,136 7.6 -23.6°
Reaches altitude 10° 19:07:04 10° 326° (NW) 2,358 6.8 -23.9°
Maximum altitude 19:12:35 79° 53° (NE) 1,013 4.4 -24.9°
Enters shadow 19:15:26 39° 134° (SE) 1,591 5.3 -25.4°
